FW8327 Weather Reports


Display with metric or nautical units.
time (UTC)temp
F
wind
direction
speed
MPH
gust
MPH
rain 1hr
in
rain 24hr
in
rain mn
in
humidity
%
barometer
mb
20260901072014 77 176 0.0 0.0 0.00 0.00 0.00 89 1014.9
20260901071509 77 158 0.0 0.0 0.00 0.00 0.00 89 1014.9
20260901071008 77 140 0.0 0.0 0.00 0.00 0.00 89 1014.7
20260901070503 77 173 0.0 0.0 0.00 0.00 0.00 89 1014.9
20260901070003 76 154 0.0 0.0 0.00 0.00 0.00 90 1014.9
20260901065457 76 152 0.0 0.0 0.00 0.00 0.00 91 1014.8
20260901064946 76 157 0.0 0.0 0.00 0.00 0.00 92 1014.7
20260901064443 76 160 0.0 0.0 0.00 0.00 0.00 92 1015.0
20260901063940 75 158 0.0 0.0 0.00 0.00 0.00 92 1015.1
20260901063436 75 138 0.0 0.0 0.00 0.00 0.00 92 1015.0
20260901062932 75 154 0.0 0.0 0.00 0.00 0.00 93 1015.0
20260901062427 75 150 0.0 0.0 0.00 0.00 0.00 93 1015.1
20260901061923 75 149 0.0 0.0 0.00 0.00 0.00 93 1015.3
20260901061419 76 146 0.0 0.0 0.00 0.00 0.00 93 1015.1
20260901060914 75 154 0.0 0.0 0.00 0.00 0.00 93 1015.0
20260901060409 75 151 0.0 0.0 0.00 0.00 0.00 93 1015.1
20260901055908 75 150 0.0 0.0 0.00 0.00 0.00 94 1015.1
20260901055405 75 156 0.0 0.0 0.00 0.00 0.00 94 1015.2
20260901054901 75 154 0.0 0.0 0.00 0.00 0.00 94 1015.1
20260901054358 75 149 0.0 0.0 0.00 0.00 0.00 94 1015.1
20260901053854 76 152 0.0 0.0 0.00 0.00 0.00 94 1015.0
20260901053349 76 157 0.0 0.0 0.00 0.00 0.00 94 1015.0
20260901052845 75 147 0.0 0.0 0.00 0.00 0.00 94 1015.3
20260901052340 75 147 0.0 0.0 0.00 0.00 0.00 94 1015.1
20260901051838 76 147 0.0 0.0 0.00 0.00 0.00 94 1015.0
20260901051334 76 148 0.0 0.0 0.00 0.00 0.00 94 1015.1
20260901050829 76 151 0.0 0.0 0.00 0.00 0.00 94 1015.0
20260901050324 76 151 0.0 0.0 0.00 0.00 0.00 94 1014.9
20260901045814 76 146 0.0 0.0 0.00 0.00 0.00 94 1015.1
20260901045313 76 154 0.0 0.0 0.00 0.00 0.00 94 1015.2
20260901044809 76 150 0.0 0.0 0.00 0.00 0.00 94 1015.1
20260901044305 76 150 0.0 0.0 0.00 0.00 0.00 95 1015.0
20260901043800 75 149 0.0 0.0 0.00 0.00 0.00 95 1014.9
20260901043256 75 154 0.0 0.0 0.00 0.00 0.00 95 1014.8
20260901042755 76 154 0.0 0.0 0.00 0.00 0.00 95 1014.8
20260901042255 76 156 0.0 0.0 0.00 0.00 0.00 95 1015.0
20260901041751 76 148 0.0 0.0 0.00 0.00 0.00 94 1014.8
20260901041246 76 151 0.0 0.0 0.00 0.00 0.00 94 1015.0
20260901040735 76 152 0.0 0.0 0.00 0.00 0.00 93 1014.6
20260901040234 77 148 0.0 0.0 0.00 0.00 0.00 93 1014.7
20260901035732 77 154 0.0 0.0 0.00 0.00 0.00 93 1014.8
20260901035226 77 162 0.0 0.0 0.00 0.00 0.00 93 1014.7
20260901034726 77 158 0.0 0.0 0.00 0.00 0.00 92 1014.8
20260901034221 76 160 0.0 0.0 0.00 0.00 0.00 93 1014.8
20260901033720 76 151 0.0 0.0 0.00 0.00 0.00 93 1014.7
20260901033214 76 153 0.0 0.0 0.00 0.00 0.00 93 1014.4
20260901032712 76 157 0.0 0.0 0.00 0.00 0.00 92 1014.8
20260901032207 76 154 0.0 0.0 0.00 0.00 0.00 92 1014.7
20260901031702 76 156 0.0 0.0 0.00 0.00 0.00 92 1015.0
20260901031158 76 165 0.0 0.0 0.00 0.00 0.00 92 1015.0
20260901030653 76 153 0.0 0.0 0.00 0.00 0.00 91 1015.1
20260901030147 76 154 0.0 0.0 0.00 0.00 0.00 91 1015.1
20260901025648 76 154 0.0 0.0 0.00 0.00 0.00 91 1015.4
20260901025142 76 154 0.0 0.0 0.00 0.00 0.00 91 1015.0
20260901024641 76 154 0.0 0.0 0.00 0.00 0.00 90 1015.4
20260901024136 76 155 0.0 0.0 0.00 0.00 0.00 90 1015.5
20260901023635 76 155 0.0 0.0 0.00 0.00 0.00 91 1015.5
20260901023130 76 155 0.0 0.0 0.00 0.00 0.00 91 1015.6
20260901022625 76 155 0.0 0.0 0.00 0.00 0.00 92 1015.5
20260901022120 76 155 0.0 0.0 0.00 0.00 0.00 91 1015.7
20260901021615 77 155 0.0 0.0 0.00 0.00 0.00 90 1015.7
20260901021110 77 155 0.0 0.0 0.00 0.00 0.00 90 1015.7
20260901020607 77 155 0.0 0.0 0.00 0.00 0.00 90 1015.5
20260901015557 77 155 0.0 0.0 0.00 0.00 0.00 90 1015.6
20260901015056 78 155 0.0 0.0 0.00 0.00 0.00 89 1015.5
20260901014551 78 155 0.0 0.0 0.00 0.00 0.00 88 1015.2
20260901014048 78 155 0.0 0.0 0.00 0.00 0.00 87 1015.1
20260901013543 78 155 0.0 0.0 0.00 0.00 0.00 88 1015.1
20260901013039 78 155 0.0 0.0 0.00 0.00 0.00 87 1015.4
20260901012538 78 155 0.0 0.0 0.00 0.00 0.00 87 1015.2
20260901012034 78 155 0.0 0.0 0.00 0.00 0.00 87 1015.1
20260901011531 78 155 0.0 0.0 0.00 0.00 0.00 88 1015.1
20260901011028 78 155 0.0 0.0 0.00 0.00 0.00 87 1014.9
20260901010523 78 155 0.0 0.0 0.00 0.00 0.00 86 1014.9
20260901010022 79 155 0.0 0.0 0.00 0.00 0.00 86 1014.7
20260901005523 80 155 0.0 0.0 0.00 0.00 0.00 85 1014.7
20260901005018 80 155 0.0 0.0 0.00 0.00 0.00 84 1014.6
20260901004517 80 158 0.0 0.0 0.00 0.00 0.00 83 1014.6
20260901004012 80 155 0.0 0.0 0.00 0.00 0.00 83 1014.6
20260901003507 80 154 0.0 0.0 0.00 0.00 0.00 83 1014.8
20260901003006 81 167 0.0 0.0 0.00 0.00 0.00 83 1014.8
20260901002505 82 156 0.0 0.0 0.00 0.00 0.00 81 1014.7
20260901002000 82 156 0.0 0.0 0.00 0.00 0.00 82 1014.7
20260901001456 82 156 0.0 0.0 0.00 0.00 0.00 81 1014.9
20260901000951 83 156 0.0 0.0 0.00 0.00 0.00 80 1014.8
20260901000451 83 156 0.0 0.0 0.00 0.00 0.00 79 1014.7
20260831235949 84 156 0.0 0.0 0.00 0.00 0.00 79 1014.6
20260831235445 84 156 0.0 0.0 0.00 0.00 0.00 78 1014.6
20260831234940 85 156 0.0 0.0 0.00 0.00 0.00 77 1014.6
20260831234435 86 156 0.0 0.0 0.00 0.00 0.00 75 1014.5
20260831233930 86 156 0.0 0.0 0.00 0.00 0.00 75 1014.4
20260831233425 87 156 0.0 0.0 0.00 0.00 0.00 73 1014.6
20260831232921 88 153 0.0 0.0 0.00 0.00 0.00 70 1014.7
20260831232417 88 154 0.0 0.0 0.00 0.00 0.00 70 1014.6
20260831231912 89 151 0.0 0.0 0.00 0.00 0.00 68 1014.7
20260831231409 89 200 0.0 0.0 0.00 0.00 0.00 67 1014.6
20260831230904 89 165 0.0 0.0 0.00 0.00 0.00 66 1014.5
20260831230359 89 155 0.0 0.0 0.00 0.00 0.00 66 1014.5
20260831225853 89 163 0.0 0.0 0.00 0.00 0.00 66 1014.6
20260831225349 89 164 0.0 0.0 0.00 0.00 0.00 66 1014.8
20260831224844 89 168 0.0 0.0 0.00 0.00 0.00 65 1014.3
20260831224338 89 221 0.0 0.0 0.00 0.00 0.00 65 1014.4
20260831223833 89 174 0.0 0.0 0.00 0.00 0.00 63 1014.3
20260831223330 90 164 0.0 0.0 0.00 0.00 0.00 63 1014.4
20260831222826 90 155 0.0 0.0 0.00 0.00 0.00 65 1014.8
20260831222322 90 212 0.0 0.0 0.00 0.00 0.00 62 1014.5
20260831221821 90 174 0.0 0.0 0.00 0.00 0.00 62 1014.4
20260831221317 90 174 0.0 0.0 0.00 0.00 0.00 62 1014.7
20260831220812 91 173 0.0 1.0 0.00 0.00 0.00 62 1014.5
20260831220307 91 185 0.0 0.0 0.00 0.00 0.00 64 1014.6
20260831215803 90 201 0.0 0.0 0.00 0.00 0.00 63 1014.6
20260831215258 91 212 0.0 0.0 0.00 0.00 0.00 64 1014.6
20260831214755 90 159 0.0 0.0 0.00 0.00 0.00 63 1014.6
20260831214252 91 190 0.0 0.0 0.00 0.00 0.00 63 1014.7
20260831213747 91 143 0.0 0.0 0.00 0.00 0.00 63 1014.8
20260831213243 90 186 0.0 0.0 0.00 0.00 0.00 63 1014.9
20260831212738 91 205 1.0 2.0 0.00 0.00 0.00 61 1014.9
20260831212235 91 152 0.0 0.0 0.00 0.00 0.00 63 1014.9
20260831211733 91 216 0.0 0.0 0.00 0.00 0.00 62 1015.0
20260831211229 91 154 0.0 0.0 0.00 0.00 0.00 64 1014.9
20260831210728 91 143 0.0 0.0 0.00 0.00 0.00 61 1014.9
20260831210225 91 158 0.0 0.0 0.00 0.00 0.00 63 1015.0
20260831205723 91 159 0.0 0.0 0.00 0.00 0.00 62 1014.9
20260831205220 91 174 0.0 0.0 0.00 0.00 0.00 61 1014.8
20260831204715 90 167 0.0 0.0 0.00 0.00 0.00 62 1014.8
20260831204214 90 170 0.0 0.0 0.00 0.00 0.00 60 1014.7
20260831203713 90 139 0.0 0.0 0.00 0.00 0.00 61 1014.8
20260831203208 90 153 0.0 0.0 0.00 0.00 0.00 64 1014.8
20260831202706 91 201 0.0 0.0 0.00 0.00 0.00 63 1015.0
20260831202201 91 160 0.0 0.0 0.00 0.00 0.00 64 1015.0
20260831201700 91 256 0.0 0.0 0.00 0.00 0.00 62 1015.1
20260831201154 91 175 0.0 0.0 0.00 0.00 0.00 62 1015.0
20260831200650 91 166 0.0 0.0 0.00 0.00 0.00 62 1015.3
20260831200145 91 158 0.0 0.0 0.00 0.00 0.00 62 1015.3
20260831195640 91 201 0.0 0.0 0.00 0.00 0.00 63 1015.3
20260831195135 91 169 0.0 0.0 0.00 0.00 0.00 63 1015.4
20260831194630 92 146 0.0 0.0 0.00 0.00 0.00 63 1015.4
20260831194125 91 197 0.0 0.0 0.00 0.00 0.00 61 1015.6
20260831193620 91 198 0.0 0.0 0.00 0.00 0.00 58 1015.8
20260831193115 91 163 0.0 0.0 0.00 0.00 0.00 58 1015.9
20260831192610 91 165 0.0 0.0 0.00 0.00 0.00 61 1015.8
20260831192105 91 178 0.0 0.0 0.00 0.00 0.00 61 1016.0
20260831191601 91 168 0.0 0.0 0.00 0.00 0.00 66 1016.1
20260831191057 91 174 0.0 0.0 0.00 0.00 0.00 62 1016.1
20260831190552 91 149 0.0 0.0 0.00 0.00 0.00 60 1016.1
20260831190050 91 187 0.0 0.0 0.00 0.00 0.00 62 1016.2
20260831185546 91 242 0.0 0.0 0.00 0.00 0.00 65 1016.4
20260831185042 91 172 0.0 0.0 0.00 0.00 0.00 62 1016.4
20260831184536 91 190 0.0 0.0 0.00 0.00 0.00 63 1016.3
20260831184032 90 145 0.0 0.0 0.00 0.00 0.00 64 1016.3
20260831183531 90 159 0.0 0.0 0.00 0.00 0.00 66 1016.5
20260831183030 89 248 0.0 1.0 0.00 0.00 0.00 65 1016.4
20260831182525 89 158 0.0 0.0 0.00 0.00 0.00 66 1016.6
20260831182021 90 222 1.0 2.0 0.00 0.00 0.00 62 1016.4
20260831181516 90 164 0.0 0.0 0.00 0.00 0.00 65 1016.5
20260831181015 90 152 0.0 0.0 0.00 0.00 0.00 65 1016.7
20260831180515 90 183 0.0 0.0 0.00 0.00 0.00 65 1016.8
20260831180010 89 189 0.0 0.0 0.00 0.00 0.00 66 1016.9
20260831175506 89 232 0.0 0.0 0.00 0.00 0.00 67 1016.8
20260831175002 89 173 0.0 0.0 0.00 0.00 0.00 67 1016.8
20260831174457 91 239 0.0 0.0 0.00 0.00 0.00 65 1016.7
20260831173956 90 162 0.0 0.0 0.00 0.00 0.00 66 1016.8
20260831173454 89 163 0.0 0.0 0.00 0.00 0.00 66 1016.9
20260831172951 89 147 0.0 0.0 0.00 0.00 0.00 69 1016.9
20260831172447 88 230 0.0 0.0 0.00 0.00 0.00 66 1017.2
20260831171942 89 193 0.0 0.0 0.00 0.00 0.00 67 1016.9
20260831171437 89 175 0.0 0.0 0.00 0.00 0.00 68 1017.3
20260831170934 89 212 0.0 0.0 0.00 0.00 0.00 67 1016.9
20260831170430 89 162 0.0 0.0 0.00 0.00 0.00 69 1016.9
20260831165927 88 165 0.0 0.0 0.00 0.00 0.00 69 1017.0
20260831165422 88 158 0.0 0.0 0.00 0.00 0.00 70 1017.2
20260831164919 89 159 0.0 0.0 0.00 0.00 0.00 68 1017.2
20260831164415 87 176 0.0 0.0 0.00 0.00 0.00 73 1017.2
20260831163909 87 152 0.0 0.0 0.00 0.00 0.00 74 1017.4
20260831163405 86 175 0.0 0.0 0.00 0.00 0.00 77 1017.4
20260831162903 85 136 0.0 0.0 0.00 0.00 0.00 79 1017.4
20260831162359 84 158 0.0 0.0 0.00 0.00 0.00 80 1017.3
20260831161857 83 162 0.0 0.0 0.00 0.00 0.00 80 1017.6
20260831161354 83 158 0.0 0.0 0.00 0.00 0.00 79 1017.6
20260831160849 83 281 0.0 0.0 0.00 0.00 0.00 79 1017.6
20260831160344 83 160 0.0 0.0 0.00 0.00 0.00 80 1017.4
20260831155839 83 174 0.0 0.0 0.00 0.00 0.00 80 1017.3
20260831155338 83 166 0.0 0.0 0.00 0.00 0.00 79 1017.3
20260831154834 83 146 0.0 0.0 0.00 0.00 0.00 79 1017.4
20260831154331 83 162 0.0 0.0 0.00 0.00 0.00 77 1017.6
20260831153829 83 161 0.0 0.0 0.00 0.00 0.00 80 1017.4
20260831153325 83 228 0.0 0.0 0.00 0.00 0.00 78 1017.6
20260831152821 84 166 0.0 0.0 0.00 0.00 0.00 77 1017.2
20260831152316 84 149 0.0 0.0 0.00 0.00 0.00 76 1017.3
20260831151811 83 206 0.0 0.0 0.00 0.00 0.00 79 1017.3
20260831151310 83 171 0.0 0.0 0.00 0.00 0.00 80 1017.2
20260831150806 83 189 0.0 0.0 0.00 0.00 0.00 79 1017.3
20260831150301 83 197 0.0 0.0 0.00 0.00 0.00 79 1017.4
20260831145800 83 167 0.0 0.0 0.00 0.00 0.00 80 1017.2
20260831145256 83 194 0.0 0.0 0.00 0.00 0.00 79 1017.4
20260831144752 83 179 0.0 0.0 0.00 0.00 0.00 82 1017.4
20260831144249 83 263 1.0 1.0 0.00 0.00 0.00 79 1017.2
20260831143748 83 176 0.0 0.0 0.00 0.00 0.00 82 1017.0
20260831143243 83 151 0.0 0.0 0.00 0.00 0.00 82 1017.1
20260831142739 83 152 0.0 0.0 0.00 0.00 0.00 82 1017.2
20260831142234 82 142 0.0 0.0 0.00 0.00 0.00 82 1016.9
20260831141733 81 124 0.0 0.0 0.00 0.00 0.00 84 1016.8
20260831141228 82 170 0.0 0.0 0.00 0.00 0.00 84 1016.9
20260831140728 82 167 0.0 0.0 0.00 0.00 0.00 85 1016.8
20260831140223 81 146 0.0 0.0 0.00 0.00 0.00 83 1016.7
20260831135721 80 160 0.0 0.0 0.00 0.00 0.00 86 1016.9
20260831135217 78 159 0.0 0.0 0.00 0.00 0.00 88 1016.8
20260831134712 77 174 0.0 0.0 0.00 0.00 0.00 90 1016.8
20260831134208 75 161 0.0 0.0 0.00 0.00 0.00 92 1017.1
20260831133707 75 159 0.0 0.0 0.00 0.00 0.00 92 1017.0
20260831133201 75 157 0.0 0.0 0.00 0.00 0.00 92 1017.0
20260831132657 75 147 0.0 0.0 0.00 0.00 0.00 91 1016.9
20260831132156 75 155 0.0 0.0 0.00 0.00 0.00 91 1016.8
20260831131651 75 161 0.0 0.0 0.00 0.00 0.00 92 1016.8
20260831131148 74 152 0.0 0.0 0.00 0.00 0.00 93 1016.7
20260831130643 73 154 0.0 0.0 0.00 0.00 0.00 94 1017.0
20260831130138 73 156 0.0 0.0 0.00 0.00 0.00 94 1016.6
20260831125636 73 152 0.0 0.0 0.00 0.00 0.00 94 1016.7
20260831125132 73 156 0.0 0.0 0.00 0.00 0.00 95 1016.5
20260831124628 73 164 0.0 0.0 0.00 0.00 0.00 95 1016.7
20260831124124 73 151 0.0 0.0 0.00 0.00 0.00 95 1016.4
20260831123624 72 151 0.0 0.0 0.00 0.00 0.00 95 1016.5
20260831123123 72 154 0.0 0.0 0.00 0.00 0.00 95 1016.4
20260831122622 72 161 0.0 0.0 0.00 0.00 0.00 95 1016.4
20260831122119 72 154 0.0 0.0 0.00 0.00 0.00 94 1016.2
20260831121618 72 162 0.0 0.0 0.00 0.00 0.00 94 1016.5
20260831121114 72 149 0.0 0.0 0.00 0.00 0.00 94 1016.2
20260831120609 72 166 0.0 0.0 0.00 0.00 0.00 95 1016.2
20260831120104 71 153 0.0 0.0 0.00 0.00 0.00 96 1016.1
20260831115600 71 149 0.0 0.0 0.00 0.00 0.00 96 1016.0
20260831115055 71 156 0.0 0.0 0.00 0.00 0.00 96 1016.0
20260831114554 70 157 0.0 0.0 0.00 0.00 0.00 96 1016.2
20260831114049 70 159 0.0 0.0 0.00 0.00 0.00 97 1016.1
20260831113548 70 153 0.0 0.0 0.00 0.00 0.00 96 1015.9
20260831113044 70 153 0.0 0.0 0.00 0.00 0.00 97 1016.2
20260831112543 70 153 0.0 0.0 0.00 0.00 0.00 97 1016.1
20260831112038 70 153 0.0 0.0 0.00 0.00 0.00 97 1016.1
20260831111535 69 153 0.0 0.0 0.00 0.00 0.00 97 1016.1
20260831111030 69 153 0.0 0.0 0.00 0.00 0.00 97 1016.0
20260831110525 69 148 0.0 0.0 0.00 0.00 0.00 98 1015.9
20260831110020 69 154 0.0 0.0 0.00 0.00 0.00 98 1016.0
20260831105514 69 159 0.0 0.0 0.00 0.00 0.00 98 1016.0
20260831105009 69 153 0.0 0.0 0.00 0.00 0.00 98 1015.9
20260831104505 69 157 0.0 0.0 0.00 0.00 0.00 98 1015.9
20260831104000 69 162 0.0 0.0 0.00 0.00 0.00 98 1016.0
20260831103455 69 161 0.0 0.0 0.00 0.00 0.00 98 1016.2
20260831102950 69 153 0.0 0.0 0.00 0.00 0.00 98 1016.1
20260831102445 70 155 0.0 0.0 0.00 0.00 0.00 98 1016.1
20260831101939 70 158 0.0 0.0 0.00 0.00 0.00 98 1016.1
20260831101435 70 158 0.0 0.0 0.00 0.00 0.00 98 1016.0
20260831100931 70 158 0.0 0.0 0.00 0.00 0.00 97 1015.9
20260831100427 70 154 0.0 0.0 0.00 0.00 0.00 97 1015.9
20260831095922 70 155 0.0 0.0 0.00 0.00 0.00 97 1015.8
20260831095421 70 155 0.0 0.0 0.00 0.00 0.00 96 1015.8
20260831094916 71 155 0.0 0.0 0.00 0.00 0.00 96 1015.8
20260831094412 71 155 0.0 0.0 0.00 0.00 0.00 96 1015.7
20260831093908 71 155 0.0 0.0 0.00 0.00 0.00 96 1015.7
20260831093403 71 155 0.0 0.0 0.00 0.00 0.00 95 1015.9
20260831092900 71 155 0.0 0.0 0.00 0.00 0.00 95 1015.7
20260831092355 71 156 0.0 0.0 0.00 0.00 0.00 95 1015.9
20260831091850 72 143 0.0 0.0 0.00 0.00 0.00 95 1016.0
20260831091345 72 142 0.0 0.0 0.00 0.00 0.00 95 1016.0
20260831090840 72 142 0.0 0.0 0.00 0.00 0.00 94 1016.0
20260831090336 72 142 0.0 0.0 0.00 0.00 0.00 94 1016.0
20260831085832 72 141 0.0 0.0 0.00 0.00 0.00 94 1016.2
20260831085326 72 140 0.0 0.0 0.00 0.00 0.00 94 1015.9
20260831084821 72 143 0.0 0.0 0.00 0.00 0.00 94 1016.1
20260831084318 72 155 0.0 0.0 0.00 0.00 0.00 95 1015.9
20260831083814 72 156 0.0 0.0 0.00 0.00 0.00 95 1016.2
20260831083309 72 156 0.0 0.0 0.00 0.00 0.00 95 1015.9
20260831082808 72 157 0.0 0.0 0.00 0.00 0.00 95 1016.0
20260831082306 72 157 0.0 0.0 0.00 0.00 0.00 94 1015.8
20260831081758 72 157 0.0 0.0 0.00 0.00 0.00 94 1015.7
20260831081254 72 157 0.0 0.0 0.00 0.00 0.00 94 1015.7
20260831080749 72 157 0.0 0.0 0.00 0.00 0.00 94 1015.6
20260831080244 72 157 0.0 0.0 0.00 0.00 0.00 95 1015.6
20260831075740 72 157 0.0 0.0 0.00 0.00 0.00 95 1015.7
20260831075235 72 157 0.0 0.0 0.00 0.00 0.00 94 1015.4
20260831074734 72 157 0.0 0.0 0.00 0.00 0.00 94 1015.4
20260831074233 72 157 0.0 0.0 0.00 0.00 0.00 93 1015.5
20260831073730 73 159 0.0 0.0 0.00 0.00 0.00 93 1015.4
20260831073229 73 160 0.0 0.0 0.00 0.00 0.00 93 1015.5
20260831072724 73 155 0.0 0.0 0.00 0.00 0.00 92 1015.6